Time,TemperatureF,DewpointF,PressureIn,WindDirection,WindDirectionDegrees,WindSpeedMPH,WindSpeedGustMPH,Humidity,HourlyPrecipIn,Conditions,Clouds,dailyrainin,SoftwareType,DateUTC
2013-11-10 00:09:00,43.3,41.1,30.06,WNW,292,0.0,-999.0,92,-99.99,,,0.00,Acu-Link.com,2013-11-10 05:09:00,
2013-11-10 00:24:00,43.0,41.4,30.05,West,270,0.0,-999.0,94,-99.99,,,0.00,Acu-Link.com,2013-11-10 05:24:00,
2013-11-10 00:40:00,43.0,41.4,30.06,SW,225,0.0,-999.0,94,-99.99,,,0.00,Acu-Link.com,2013-11-10 05:40:00,
2013-11-10 00:55:00,43.0,41.4,30.05,WNW,292,0.0,-999.0,94,-99.99,,,0.00,Acu-Link.com,2013-11-10 05:55:00,
2013-11-10 01:10:00,42.6,41.8,30.05,WNW,292,0.0,-999.0,97,-99.99,,,0.00,Acu-Link.com,2013-11-10 06:10:00,
2013-11-10 01:25:00,42.6,41.5,30.05,WSW,247,0.0,-999.0,96,-99.99,,,0.00,Acu-Link.com,2013-11-10 06:25:00,
2013-11-10 01:41:00,42.2,41.4,30.05,WSW,247,0.0,-999.0,97,-99.99,,,0.00,Acu-Link.com,2013-11-10 06:41:00,
2013-11-10 01:56:00,42.2,41.7,30.05,WNW,292,0.0,-999.0,98,-99.99,,,0.00,Acu-Link.com,2013-11-10 06:56:00,
2013-11-10 02:11:00,42.4,41.6,30.04,WNW,292,0.0,-999.0,97,-99.99,,,0.00,Acu-Link.com,2013-11-10 07:11:00,
2013-11-10 02:26:00,42.6,42.1,30.04,SW,225,0.0,-999.0,98,-99.99,,,0.00,Acu-Link.com,2013-11-10 07:26:00,
2013-11-10 02:41:00,42.4,41.9,30.03,NW,315,0.0,-999.0,98,-99.99,,,0.00,Acu-Link.com,2013-11-10 07:41:00,
2013-11-10 02:56:00,42.2,41.9,30.04,NNE,22,0.0,-999.0,99,-99.99,,,0.00,Acu-Link.com,2013-11-10 07:56:00,
2013-11-10 03:12:00,41.9,41.6,30.03,West,270,0.0,-999.0,99,-99.99,,,0.00,Acu-Link.com,2013-11-10 08:12:00,
2013-11-10 03:27:00,42.1,41.8,30.03,NW,315,0.0,-999.0,99,-99.99,,,0.00,Acu-Link.com,2013-11-10 08:27:00,
2013-11-10 03:42:00,42.2,41.9,30.03,West,270,0.0,-999.0,99,-99.99,,,0.00,Acu-Link.com,2013-11-10 08:42:00,
2013-11-10 03:57:00,42.8,42.5,30.04,West,270,0.0,-999.0,99,-99.99,,,0.00,Acu-Link.com,2013-11-10 08:57:00,
2013-11-10 04:12:00,43.0,42.7,30.04,West,270,0.0,-999.0,99,-99.99,,,0.00,Acu-Link.com,2013-11-10 09:12:00,
2013-11-10 04:27:00,43.3,42.8,30.03,North,0,0.0,-999.0,98,-99.99,,,0.00,Acu-Link.com,2013-11-10 09:27:00,
2013-11-10 04:42:00,43.1,42.3,30.04,West,270,0.0,-999.0,97,-99.99,,,0.00,Acu-Link.com,2013-11-10 09:42:00,
2013-11-10 04:57:00,43.1,42.3,30.04,NNE,22,0.0,-999.0,97,-99.99,,,0.00,Acu-Link.com,2013-11-10 09:57:00,
2013-11-10 05:12:00,43.5,42.4,30.04,West,270,0.0,-999.0,96,-99.99,,,0.00,Acu-Link.com,2013-11-10 10:12:00,
2013-11-10 05:27:00,43.3,42.5,30.04,WSW,247,0.0,-999.0,97,-99.99,,,0.00,Acu-Link.com,2013-11-10 10:27:00,
2013-11-10 05:43:00,43.5,42.4,30.04,West,270,1.1,-999.0,96,-99.99,,,0.00,Acu-Link.com,2013-11-10 10:43:00,
2013-11-10 05:58:00,43.7,42.4,30.05,West,270,0.0,-999.0,95,-99.99,,,0.00,Acu-Link.com,2013-11-10 10:58:00,
2013-11-10 06:13:00,43.7,41.8,30.04,SW,225,0.0,-999.0,93,-99.99,,,0.00,Acu-Link.com,2013-11-10 11:13:00,
2013-11-10 06:28:00,43.9,41.4,30.05,West,270,0.0,-999.0,91,-99.99,,,0.00,Acu-Link.com,2013-11-10 11:28:00,
2013-11-10 06:43:00,43.9,42.0,30.06,NNW,337,0.0,-999.0,93,-99.99,,,0.00,Acu-Link.com,2013-11-10 11:43:00,
2013-11-10 06:58:00,44.0,42.4,30.05,West,270,0.0,-999.0,94,-99.99,,,0.00,Acu-Link.com,2013-11-10 11:58:00,
2013-11-10 07:13:00,44.0,42.1,30.05,West,270,0.0,-999.0,93,-99.99,,,0.00,Acu-Link.com,2013-11-10 12:13:00,
2013-11-10 07:28:00,44.4,41.9,30.06,SSW,202,0.0,-999.0,91,-99.99,,,0.00,Acu-Link.com,2013-11-10 12:28:00,
2013-11-10 07:43:00,44.8,41.8,30.06,SW,225,0.0,-999.0,89,-99.99,,,0.00,Acu-Link.com,2013-11-10 12:43:00,
2013-11-10 07:59:00,45.3,42.0,30.07,SW,225,0.0,-999.0,88,-99.99,,,0.00,Acu-Link.com,2013-11-10 12:59:00,
2013-11-10 08:14:00,46.2,42.8,30.07,NE,45,0.0,-999.0,88,-99.99,,,0.00,Acu-Link.com,2013-11-10 13:14:00,
2013-11-10 08:29:00,47.5,42.9,30.07,West,270,0.0,-999.0,84,-99.99,,,0.00,Acu-Link.com,2013-11-10 13:29:00,
2013-11-10 08:44:00,48.9,42.7,30.08,NNE,22,0.0,-999.0,79,-99.99,,,0.00,Acu-Link.com,2013-11-10 13:44:00,
2013-11-10 08:59:00,50.3,41.3,30.08,SW,225,0.0,-999.0,71,-99.99,,,0.00,Acu-Link.com,2013-11-10 13:59:00,
2013-11-10 09:14:00,52.0,41.8,30.08,SSE,157,0.0,-999.0,68,-99.99,,,0.00,Acu-Link.com,2013-11-10 14:14:00,
2013-11-10 09:29:00,53.4,40.7,30.07,NNE,22,0.0,-999.0,62,-99.99,,,0.00,Acu-Link.com,2013-11-10 14:29:00,
2013-11-10 09:44:00,55.2,38.8,30.07,West,270,2.2,-999.0,54,-99.99,,,0.00,Acu-Link.com,2013-11-10 14:44:00,
2013-11-10 09:59:00,58.3,39.7,30.08,WNW,292,1.7,-999.0,50,-99.99,,,0.00,Acu-Link.com,2013-11-10 14:59:00,
2013-11-10 10:15:00,58.4,37.7,30.07,West,270,5.3,-999.0,46,-99.99,,,0.00,Acu-Link.com,2013-11-10 15:15:00,
2013-11-10 10:30:00,57.9,38.9,30.06,West,270,2.7,-999.0,49,-99.99,,,0.00,Acu-Link.com,2013-11-10 15:30:00,
2013-11-10 10:45:00,60.6,39.7,30.06,SW,225,3.2,-999.0,46,-99.99,,,0.00,Acu-Link.com,2013-11-10 15:45:00,
2013-11-10 11:00:00,61.1,39.6,30.06,ESE,112,1.7,-999.0,45,-99.99,,,0.00,Acu-Link.com,2013-11-10 16:00:00,
2013-11-10 11:15:00,61.3,39.2,30.06,SE,135,0.0,-999.0,44,-99.99,,,0.00,Acu-Link.com,2013-11-10 16:15:00,
2013-11-10 11:30:00,62.4,40.2,30.06,South,180,2.7,-999.0,44,-99.99,,,0.00,Acu-Link.com,2013-11-10 16:30:00,
2013-11-10 11:45:00,63.8,40.9,30.05,SSE,157,1.1,-999.0,43,-99.99,,,0.00,Acu-Link.com,2013-11-10 16:45:00,
2013-11-10 12:00:00,66.5,40.8,30.04,West,270,4.7,-999.0,39,-99.99,,,0.00,Acu-Link.com,2013-11-10 17:00:00,
2013-11-10 12:15:00,65.5,40.5,30.03,West,270,0.0,-999.0,40,-99.99,,,0.00,Acu-Link.com,2013-11-10 17:15:00,
2013-11-10 12:31:00,67.8,39.9,30.02,South,180,4.2,-999.0,36,-99.99,,,0.00,Acu-Link.com,2013-11-10 17:31:00,
2013-11-10 12:46:00,68.5,41.2,30.01,West,270,1.7,-999.0,37,-99.99,,,0.00,Acu-Link.com,2013-11-10 17:46:00,
2013-11-10 13:01:00,67.4,40.2,30.01,SW,225,0.0,-999.0,37,-99.99,,,0.00,Acu-Link.com,2013-11-10 18:01:00,
2013-11-10 13:16:00,69.8,42.3,30.00,SSW,202,1.7,-999.0,37,-99.99,,,0.00,Acu-Link.com,2013-11-10 18:16:00,
2013-11-10 13:31:00,70.5,41.5,30.00,West,270,2.7,-999.0,35,-99.99,,,0.00,Acu-Link.com,2013-11-10 18:31:00,
2013-11-10 13:46:00,69.2,40.4,29.99,SW,225,0.0,-999.0,35,-99.99,,,0.00,Acu-Link.com,2013-11-10 18:46:00,
2013-11-10 14:01:00,71.0,42.0,29.98,SE,135,1.1,-999.0,35,-99.99,,,0.00,Acu-Link.com,2013-11-10 19:01:00,
2013-11-10 14:16:00,70.5,41.5,29.98,SW,225,1.7,-999.0,35,-99.99,,,0.00,Acu-Link.com,2013-11-10 19:16:00,
2013-11-10 14:31:00,70.3,40.6,29.98,North,0,4.2,-999.0,34,-99.99,,,0.00,Acu-Link.com,2013-11-10 19:31:00,
2013-11-10 14:47:00,69.6,41.5,29.98,WNW,292,4.7,-999.0,36,-99.99,,,0.00,Acu-Link.com,2013-11-10 19:47:00,
2013-11-10 15:02:00,69.8,41.6,29.98,West,270,2.7,-999.0,36,-99.99,,,0.00,Acu-Link.com,2013-11-10 20:02:00,
2013-11-10 15:17:00,69.1,41.7,29.97,East,90,0.0,-999.0,37,-99.99,,,0.00,Acu-Link.com,2013-11-10 20:17:00,
2013-11-10 15:32:00,70.7,41.7,29.97,WNW,292,0.0,-999.0,35,-99.99,,,0.00,Acu-Link.com,2013-11-10 20:32:00,
2013-11-10 15:48:00,70.1,41.2,29.97,SSW,202,4.2,-999.0,35,-99.99,,,0.00,Acu-Link.com,2013-11-10 20:48:00,
2013-11-10 16:18:00,69.4,40.6,29.97,SW,225,1.7,-999.0,35,-99.99,,,0.00,Acu-Link.com,2013-11-10 21:18:00,
2013-11-10 16:33:00,68.0,40.8,29.98,WSW,247,1.7,-999.0,37,-99.99,,,0.00,Acu-Link.com,2013-11-10 21:33:00,
2013-11-10 16:48:00,66.2,40.5,29.98,ESE,112,1.1,-999.0,39,-99.99,,,0.00,Acu-Link.com,2013-11-10 21:48:00,
2013-11-10 17:03:00,64.9,40.0,29.99,West,270,2.2,-999.0,40,-99.99,,,0.00,Acu-Link.com,2013-11-10 22:03:00,
2013-11-10 17:18:00,63.7,38.9,29.99,West,270,0.0,-999.0,40,-99.99,,,0.00,Acu-Link.com,2013-11-10 22:18:00,
2013-11-10 17:33:00,61.9,38.6,29.99,SW,225,0.0,-999.0,42,-99.99,,,0.00,Acu-Link.com,2013-11-10 22:33:00,
2013-11-10 17:48:00,60.8,38.2,29.99,SW,225,0.0,-999.0,43,-99.99,,,0.00,Acu-Link.com,2013-11-10 22:48:00,
2013-11-10 18:04:00,59.3,38.5,29.99,WSW,247,0.0,-999.0,46,-99.99,,,0.00,Acu-Link.com,2013-11-10 23:04:00,
2013-11-10 18:19:00,57.5,38.5,29.99,West,270,0.0,-999.0,49,-99.99,,,0.00,Acu-Link.com,2013-11-10 23:19:00,
2013-11-10 18:34:00,56.1,38.2,30.00,West,270,0.0,-999.0,51,-99.99,,,0.00,Acu-Link.com,2013-11-10 23:34:00,
2013-11-10 18:49:00,55.2,39.8,30.01,West,270,0.0,-999.0,56,-99.99,,,0.00,Acu-Link.com,2013-11-10 23:49:00,
2013-11-10 19:04:00,53.8,38.9,30.01,WNW,292,0.0,-999.0,57,-99.99,,,0.00,Acu-Link.com,2013-11-11 00:04:00,
2013-11-10 19:19:00,52.7,40.1,30.02,West,270,0.0,-999.0,62,-99.99,,,0.00,Acu-Link.com,2013-11-11 00:19:00,
2013-11-10 19:34:00,51.2,40.2,30.02,NW,315,0.0,-999.0,66,-99.99,,,0.00,Acu-Link.com,2013-11-11 00:34:00,
2013-11-10 19:50:00,50.2,40.1,30.03,WNW,292,0.0,-999.0,68,-99.99,,,0.00,Acu-Link.com,2013-11-11 00:50:00,
2013-11-10 20:05:00,49.3,39.6,30.03,NW,315,0.0,-999.0,69,-99.99,,,0.00,Acu-Link.com,2013-11-11 01:05:00,
2013-11-10 20:20:00,47.6,39.7,30.03,WNW,292,0.0,-999.0,74,-99.99,,,0.00,Acu-Link.com,2013-11-11 01:20:00,
2013-11-10 20:35:00,46.7,40.9,30.03,WNW,292,0.0,-999.0,80,-99.99,,,0.00,Acu-Link.com,2013-11-11 01:35:00,
2013-11-10 20:50:00,46.2,41.0,30.03,WNW,292,0.0,-999.0,82,-99.99,,,0.00,Acu-Link.com,2013-11-11 01:50:00,
2013-11-10 21:05:00,45.5,41.0,30.02,NNE,22,0.0,-999.0,84,-99.99,,,0.00,Acu-Link.com,2013-11-11 02:05:00,
2013-11-10 21:20:00,44.6,40.7,30.03,NW,315,0.0,-999.0,86,-99.99,,,0.00,Acu-Link.com,2013-11-11 02:20:00,
2013-11-10 21:35:00,44.4,40.2,30.02,WNW,292,0.0,-999.0,85,-99.99,,,0.00,Acu-Link.com,2013-11-11 02:35:00,
2013-11-10 21:50:00,43.9,40.6,30.02,West,270,0.0,-999.0,88,-99.99,,,0.00,Acu-Link.com,2013-11-11 02:50:00,
2013-11-10 22:06:00,43.1,39.8,30.01,NNE,22,0.0,-999.0,88,-99.99,,,0.00,Acu-Link.com,2013-11-11 03:06:00,
2013-11-10 22:21:00,43.0,40.0,30.01,WNW,292,0.0,-999.0,89,-99.99,,,0.00,Acu-Link.com,2013-11-11 03:21:00,
2013-11-10 22:36:00,42.4,40.0,30.02,West,270,0.0,-999.0,91,-99.99,,,0.00,Acu-Link.com,2013-11-11 03:36:00,
2013-11-10 22:51:00,41.7,39.6,30.01,West,270,0.0,-999.0,92,-99.99,,,0.00,Acu-Link.com,2013-11-11 03:51:00,
2013-11-10 23:06:00,41.5,39.4,30.01,NNW,337,0.0,-999.0,92,-99.99,,,0.00,Acu-Link.com,2013-11-11 04:06:00,
2013-11-10 23:21:00,41.7,40.1,30.01,West,270,0.0,-999.0,94,-99.99,,,0.00,Acu-Link.com,2013-11-11 04:21:00,
2013-11-10 23:36:00,41.0,40.2,30.01,North,0,0.0,-999.0,97,-99.99,,,0.00,Acu-Link.com,2013-11-11 04:36:00,
2013-11-10 23:51:00,40.6,39.8,30.01,NW,315,0.0,-999.0,97,-99.99,,,0.00,Acu-Link.com,2013-11-11 04:51:00,